TimeCST,TemperatureF,Dew PointF,Humidity,Sea Level PressureIn,VisibilityMPH,Wind Direction,Wind SpeedMPH,Gust SpeedMPH,PrecipitationIn,Events,Conditions,WindDirDegrees,DateUTC
12:37 AM,57.2,55.4,94,29.77,6.0,Calm,Calm,-,N/A,,Mostly Cloudy,0,2012-12-09 06:37:00
12:45 AM,57.2,55.4,94,29.77,6.0,Calm,Calm,-,N/A,,Mostly Cloudy,0,2012-12-09 06:45:00
12:53 AM,57.9,57.0,97,29.75,6.0,Calm,Calm,-,N/A,,Mostly Cloudy,0,2012-12-09 06:53:00
1:53 AM,61.0,59.0,93,29.75,6.0,SSW,8.1,-,N/A,,Mostly Cloudy,200,2012-12-09 07:53:00
2:53 AM,64.0,61.0,90,29.75,8.0,SSW,10.4,-,N/A,,Mostly Cloudy,210,2012-12-09 08:53:00
3:53 AM,64.0,61.0,90,29.75,7.0,South,10.4,-,N/A,,Mostly Cloudy,190,2012-12-09 09:53:00
4:53 AM,64.0,61.0,90,29.75,5.0,SSW,10.4,-,N/A,,Scattered Clouds,200,2012-12-09 10:53:00
5:53 AM,63.0,61.0,93,29.75,5.0,SSW,10.4,-,N/A,,Mostly Cloudy,200,2012-12-09 11:53:00
6:53 AM,63.0,61.0,93,29.77,6.0,SSW,11.5,-,N/A,,Mostly Cloudy,200,2012-12-09 12:53:00
7:53 AM,63.0,61.0,93,29.78,5.0,SSW,9.2,-,N/A,,Overcast,210,2012-12-09 13:53:00
8:53 AM,66.0,61.0,84,29.81,5.0,WSW,11.5,-,N/A,,Haze,250,2012-12-09 14:53:00
9:53 AM,66.0,60.1,81,29.83,6.0,WSW,11.5,-,N/A,,Haze,240,2012-12-09 15:53:00
10:53 AM,66.9,55.0,66,29.83,10.0,West,11.5,-,N/A,,Overcast,280,2012-12-09 16:53:00
11:09 AM,64.4,53.6,68,29.85,9.0,NNW,16.1,-,N/A,,Overcast,330,2012-12-09 17:09:00
11:53 AM,64.0,46.0,52,29.84,10.0,WNW,15.0,-,N/A,,Mostly Cloudy,300,2012-12-09 17:53:00
12:53 PM,62.1,45.0,53,29.84,10.0,WNW,15.0,-,N/A,,Mostly Cloudy,290,2012-12-09 18:53:00
1:46 PM,57.2,46.4,67,29.86,8.0,NNW,20.7,-,N/A,,Overcast,330,2012-12-09 19:46:00
1:53 PM,57.0,46.9,69,29.85,8.0,NW,18.4,-,N/A,,Overcast,320,2012-12-09 19:53:00
2:53 PM,57.0,46.9,69,29.85,10.0,NNW,18.4,26.5,N/A,,Overcast,330,2012-12-09 20:53:00
3:53 PM,55.4,46.4,72,29.86,10.0,North,21.9,-,N/A,,Overcast,350,2012-12-09 21:53:00
4:53 PM,55.0,44.1,67,29.87,10.0,NNW,17.3,-,N/A,,Overcast,340,2012-12-09 22:53:00
5:53 PM,53.1,43.0,69,29.90,10.0,North,16.1,-,N/A,,Mostly Cloudy,350,2012-12-09 23:53:00
6:53 PM,53.1,42.1,66,29.92,10.0,North,17.3,-,N/A,,Overcast,350,2012-12-10 00:53:00
7:53 PM,52.0,39.0,61,29.94,10.0,NNW,19.6,-,N/A,,Overcast,340,2012-12-10 01:53:00
8:43 PM,50.0,35.6,58,29.96,10.0,North,20.7,26.5,N/A,,Mostly Cloudy,360,2012-12-10 02:43:00
8:53 PM,48.9,33.1,54,29.95,10.0,North,17.3,-,N/A,,Mostly Cloudy,360,2012-12-10 02:53:00
9:53 PM,45.0,23.0,42,29.98,10.0,NNW,24.2,28.8,N/A,,Scattered Clouds,340,2012-12-10 03:53:00
10:53 PM,41.0,16.0,36,30.01,10.0,NNW,24.2,36.8,N/A,,Scattered Clouds,340,2012-12-10 04:53:00
11:53 PM,39.9,14.0,35,30.04,10.0,NNW,18.4,-,N/A,,Mostly Cloudy,340,2012-12-10 05:53:00